Location: Ab? ar R?sh Ba?r?
(24.1861°N, 32.8847°E)
Time: 22:45:50
(UTC+00:00)

ARGOS - Pass Details

Date: 24 October 2021
Orbit: 820 x 835 km, 98.4° (Epoch: 05 December)

Event Time Altitude Azimuth Distance (km) Brightness Sun altitude
Rises 16:32:08 0° 169° (SSE) 3,347 6.3 -18.3°
Reaches altitude 10° 16:34:29 10° 170° (S) 2,419 5.5 -18.8°
Maximum altitude 16:39:51 83° 257° (WSW) 838 3.2 -20.1°
Drops below altitude 10° 16:45:16 10° 346° (NNW) 2,438 5.7 -21.3°
Sets 16:47:38 0° 347° (NNW) 3,376 6.5 -21.8°
